TimeEDT,TemperatureF,Dew PointF,Humidity,Sea Level PressureIn,VisibilityMPH,Wind Direction,Wind SpeedMPH,Gust SpeedMPH,PrecipitationIn,Events,Conditions,WindDirDegrees,DateUTC
12:54 AM,26.1,25.0,96,29.73,-9999.0,North,-9999.0,-,N/A,,Unknown,0,2013-03-14 04:54:00
1:54 AM,26.1,25.0,96,29.72,-9999.0,North,-9999.0,-,N/A,,Unknown,0,2013-03-14 05:54:00
2:54 AM,26.1,25.0,96,29.72,-9999.0,North,-9999.0,-,N/A,,Unknown,0,2013-03-14 06:54:00
3:54 AM,26.1,25.0,96,29.70,-9999.0,North,-9999.0,-,N/A,,Unknown,0,2013-03-14 07:54:00
4:54 AM,26.1,25.0,96,29.70,-9999.0,North,-9999.0,-,N/A,,Unknown,0,2013-03-14 08:54:00
5:54 AM,26.1,23.0,88,29.71,-9999.0,North,-9999.0,-,N/A,,Unknown,0,2013-03-14 09:54:00
6:54 AM,28.0,21.9,78,29.71,-9999.0,North,-9999.0,-,N/A,,Unknown,0,2013-03-14 10:54:00
7:54 AM,28.0,19.9,72,29.72,-9999.0,North,-9999.0,-,N/A,,Unknown,0,2013-03-14 11:54:00
8:54 AM,28.0,19.9,72,29.73,-9999.0,North,-9999.0,-,N/A,,Unknown,0,2013-03-14 12:54:00
9:54 AM,28.0,18.0,66,29.74,-9999.0,North,-9999.0,-,N/A,,Unknown,0,2013-03-14 13:54:00
10:54 AM,28.0,16.0,61,29.74,-9999.0,North,-9999.0,-,N/A,,Unknown,0,2013-03-14 14:54:00
11:54 AM,28.0,15.1,58,29.73,-9999.0,North,-9999.0,-,N/A,,Unknown,0,2013-03-14 15:54:00
12:54 PM,28.9,12.9,51,29.73,-9999.0,North,-9999.0,-,N/A,,Unknown,0,2013-03-14 16:54:00
3:54 PM,24.1,8.1,51,29.76,-9999.0,North,-9999.0,-,N/A,,Unknown,0,2013-03-14 19:54:00
4:54 PM,21.0,5.0,50,29.80,-9999.0,North,-9999.0,-,N/A,,Unknown,0,2013-03-14 20:54:00
5:54 PM,18.0,3.0,52,29.84,-9999.0,North,-9999.0,-,N/A,,Unknown,0,2013-03-14 21:54:00
6:54 PM,17.1,3.0,54,29.86,-9999.0,North,-9999.0,-,N/A,,Unknown,0,2013-03-14 22:54:00
7:54 PM,17.1,3.0,54,29.87,-9999.0,North,-9999.0,-,N/A,,Unknown,0,2013-03-14 23:54:00
8:54 PM,17.1,5.0,59,29.88,-9999.0,North,-9999.0,-,N/A,,Unknown,0,2013-03-15 00:54:00
9:54 PM,16.0,5.0,62,29.89,-9999.0,North,-9999.0,-,N/A,,Unknown,0,2013-03-15 01:54:00
10:54 PM,15.1,6.1,68,29.88,-9999.0,North,-9999.0,-,N/A,,Unknown,0,2013-03-15 02:54:00
11:54 PM,15.1,7.0,70,29.88,-9999.0,North,-9999.0,-,N/A,,Unknown,0,2013-03-15 03:54:00